Date String (YYYY-MM-DD hh:mm:ss) UTC,Instrument flags,Ambient pressure (hPa),Sample flow (lpm),Bypass flow (lpm),Sample temperature (°C),Ambient temperature (°C),ASC tube jacket temperature (°C),LED temperature (°C),Box temperature (°C),Sample RH (%),Span deviation,Mass concentration (μg/m³),Mass concentration (μg/m³),Mass concentration (μg/m³)
DateTimeUTC,F1_M11,P_M11,Q1_M11,Q2_M11,T1_M11,T2_M11,T3_M11,T4_M11,T5_M11,U1_M11,ZSPAN_M11,X2_M11,X0_M11,X1_M11
2022-01-26 11:00:00,,0824.9,4.99,0.00,21.9,21.8,00.0,31.0,23.5,08.4,0000.0,0004.79,0006.69,0004.73
2022-01-26 11:01:00,,0824.9,5.01,0.00,22.0,22.5,00.0,31.0,23.8,08.3,0000.0,0004.79,0006.63,0004.73
2022-01-26 11:02:00,,0824.9,4.99,0.00,22.2,23.2,00.0,31.1,24.1,08.2,0000.0,0004.76,0006.49,0004.70
2022-01-26 11:03:00,,0824.9,5.00,0.00,22.3,23.0,00.0,31.1,24.1,08.1,0000.0,0004.76,0006.52,0004.70
2022-01-26 11:04:00,,0824.9,5.00,0.00,22.2,22.7,00.0,31.1,24.0,08.2,0000.0,0004.75,0006.54,0004.68
2022-01-26 11:05:00,,0824.9,5.01,0.00,22.2,22.3,00.0,31.1,23.9,08.1,0000.0,0004.71,0006.45,0004.64
2022-01-26 11:06:00,,0824.9,4.99,0.00,22.1,21.9,00.0,31.1,23.8,07.9,0000.0,0004.63,0006.31,0004.56
2022-01-26 11:07:00,,0824.9,5.01,0.00,22.0,21.7,00.0,31.1,23.6,08.0,0000.0,0004.58,0006.25,0004.50
2022-01-26 11:08:00,,0824.9,5.00,0.00,22.0,21.4,00.0,31.1,23.5,08.2,0000.0,0004.55,0006.18,0004.48
2022-01-26 11:09:00,,0824.8,5.00,0.00,21.9,21.3,00.0,31.0,23.4,08.3,0000.0,0004.52,0006.08,0004.46
2022-01-26 11:10:00,,0824.9,5.00,0.00,21.9,21.1,00.0,31.0,23.4,08.3,0000.0,0004.50,0006.06,0004.43
2022-01-26 11:11:00,,0824.9,4.99,0.00,21.8,21.3,00.0,31.0,23.4,08.2,0000.0,0004.44,0005.92,0004.37
2022-01-26 11:12:00,,0824.9,4.99,0.00,21.9,22.0,00.0,31.0,23.6,08.0,0000.0,0004.36,0005.78,0004.30
2022-01-26 11:13:00,,0824.9,5.01,0.00,22.1,22.7,00.0,31.1,23.9,07.8,0000.0,0004.28,0005.63,0004.22
2022-01-26 11:14:00,,0824.9,5.00,0.00,22.2,23.2,00.0,31.1,24.2,07.6,0000.0,0004.18,0005.43,0004.12
2022-01-26 11:15:00,,0824.9,5.00,0.00,22.3,22.9,00.0,31.1,24.1,07.6,0000.0,0004.09,0005.28,0004.03
2022-01-26 11:16:00,,0824.9,5.00,0.00,22.2,22.5,00.0,31.1,24.0,07.5,0000.0,0004.03,0005.14,0003.96
2022-01-26 11:17:00,,0824.9,5.00,0.00,22.2,22.1,00.0,31.1,23.9,07.6,0000.0,0004.01,0005.12,0003.95
2022-01-26 11:18:00,,0824.8,4.99,0.00,22.1,21.9,00.0,31.1,23.7,07.7,0000.0,0003.97,0005.01,0003.91
2022-01-26 11:19:00,,0824.7,4.99,0.00,22.1,21.6,00.0,31.1,23.7,07.7,0000.0,0003.93,0004.95,0003.87
2022-01-26 11:20:00,,0824.7,5.00,0.00,22.0,21.4,00.0,31.1,23.6,07.7,0000.0,0003.86,0004.83,0003.80
2022-01-26 11:21:00,,0824.7,5.00,0.00,21.9,21.2,00.0,31.0,23.4,07.7,0000.0,0003.78,0004.72,0003.72
2022-01-26 11:22:00,,0824.6,5.00,0.00,21.9,21.1,00.0,31.0,23.4,07.7,0000.0,0003.72,0004.63,0003.66
2022-01-26 11:23:00,,0824.6,5.01,0.00,21.9,21.4,00.0,31.0,23.4,07.7,0000.0,0003.67,0004.53,0003.61
2022-01-26 11:24:00,,0824.7,4.99,0.00,22.0,22.2,00.0,31.0,23.7,07.6,0000.0,0003.68,0004.55,0003.61
2022-01-26 11:25:00,,0824.6,5.00,0.00,22.1,22.9,00.0,31.1,24.0,07.6,0000.0,0003.71,0004.59,0003.64
2022-01-26 11:26:00,,0824.7,5.01,0.00,22.2,23.1,00.0,31.1,24.1,07.6,0000.0,0003.71,0004.58,0003.66
2022-01-26 11:27:00,,0824.6,5.00,0.00,22.3,22.7,00.0,31.1,24.1,07.6,0000.0,0003.73,0004.62,0003.68
2022-01-26 11:28:00,,0824.6,4.99,0.00,22.2,22.3,00.0,31.1,23.9,07.5,0000.0,0003.71,0004.57,0003.67
2022-01-26 11:29:00,,0824.6,5.00,0.00,22.1,22.0,00.0,31.1,23.7,07.4,0000.0,0003.67,0004.48,0003.62
2022-01-26 11:30:00,,0824.6,5.00,0.00,22.0,21.6,00.0,31.1,23.5,07.4,0000.0,0003.59,0004.37,0003.55
2022-01-26 11:31:00,,0824.6,5.01,0.00,21.9,21.3,00.0,31.0,23.4,07.4,0000.0,0003.53,0004.26,0003.47
2022-01-26 11:32:00,,0824.6,5.00,0.00,21.9,21.2,00.0,31.0,23.3,07.4,0000.0,0003.49,0004.18,0003.43
2022-01-26 11:33:00,,0824.6,5.00,0.00,21.8,21.0,00.0,31.0,23.3,07.3,0000.0,0003.45,0004.16,0003.38
2022-01-26 11:34:00,,0824.6,4.99,0.00,21.8,21.2,00.0,31.0,23.3,07.3,0000.0,0003.40,0004.20,0003.34
2022-01-26 11:35:00,,0824.6,4.99,0.00,21.9,21.9,00.0,31.0,23.6,07.3,0000.0,0003.35,0004.28,0003.28
2022-01-26 11:36:00,,0824.6,5.02,0.00,22.0,22.7,00.0,31.0,23.9,07.2,0000.0,0003.30,0004.23,0003.22
2022-01-26 11:37:00,,0824.6,4.99,0.00,22.2,23.1,00.0,31.1,24.1,07.2,0000.0,0003.25,0004.14,0003.17
2022-01-26 11:38:00,,0824.6,5.00,0.00,22.2,22.8,00.0,31.1,24.1,07.1,0000.0,0003.20,0004.06,0003.12
2022-01-26 11:39:00,,0824.6,5.00,0.00,22.2,22.4,00.0,31.1,23.9,07.1,0000.0,0003.18,0004.03,0003.08
2022-01-26 11:40:00,,0824.6,5.01,0.00,22.1,22.1,00.0,31.1,23.8,07.1,0000.0,0003.19,0004.05,0003.07
2022-01-26 11:41:00,,0824.6,5.01,0.00,22.1,21.8,00.0,31.1,23.7,07.2,0000.0,0003.19,0004.03,0003.09
2022-01-26 11:42:00,,0824.6,5.00,0.00,22.0,21.5,00.0,31.1,23.6,07.2,0000.0,0003.22,0004.07,0003.13
2022-01-26 11:43:00,,0824.6,5.00,0.00,21.9,21.2,00.0,31.0,23.5,07.3,0000.0,0003.25,0004.10,0003.16
2022-01-26 11:44:00,,0824.6,5.00,0.00,21.9,21.1,00.0,31.0,23.4,07.3,0000.0,0003.28,0004.11,0003.20
2022-01-26 11:45:00,,0824.6,5.00,0.00,21.8,21.0,00.0,31.0,23.3,07.4,0000.0,0003.35,0004.11,0003.27
2022-01-26 11:46:00,,0824.6,5.00,0.00,21.8,21.4,00.0,31.0,23.4,07.4,0000.0,0003.40,0004.01,0003.32
2022-01-26 11:47:00,,0824.7,5.01,0.00,21.9,22.2,00.0,31.0,23.7,07.4,0000.0,0003.43,0004.02,0003.36
2022-01-26 11:48:00,,0824.7,5.00,0.00,22.1,22.9,00.0,31.0,24.0,07.4,0000.0,0003.48,0004.14,0003.40
2022-01-26 11:49:00,,0824.6,5.00,0.00,22.2,23.1,00.0,31.1,24.1,07.3,0000.0,0003.52,0004.22,0003.43
2022-01-26 11:50:00,,0824.6,5.00,0.00,22.2,22.7,00.0,31.1,24.0,07.3,0000.0,0003.54,0004.29,0003.45
2022-01-26 11:51:00,,0824.6,4.99,0.00,22.2,22.4,00.0,31.1,23.9,07.3,0000.0,0003.57,0004.35,0003.47
2022-01-26 11:52:00,,0824.6,5.01,0.00,22.1,22.0,00.0,31.1,23.7,07.3,0000.0,0003.60,0004.43,0003.50
2022-01-26 11:53:00,,0824.5,4.99,0.00,22.0,21.7,00.0,31.0,23.6,07.3,0000.0,0003.63,0004.47,0003.53
2022-01-26 11:54:00,,0824.5,5.00,0.00,21.9,21.4,00.0,31.0,23.5,07.4,0000.0,0003.66,0004.55,0003.56
2022-01-26 11:55:00,,0824.4,4.99,0.00,21.9,21.2,00.0,31.0,23.3,07.4,0000.0,0003.67,0004.58,0003.57
2022-01-26 11:56:00,,0824.5,5.00,0.00,21.8,20.9,00.0,31.0,23.2,07.4,0000.0,0003.69,0004.62,0003.56
2022-01-26 11:57:00,,0824.5,4.99,0.00,21.7,21.2,00.0,30.9,23.3,07.5,0000.0,0003.68,0004.62,0003.56
2022-01-26 11:58:00,,0824.5,5.01,0.00,21.8,22.0,00.0,31.0,23.5,07.5,0000.0,0003.68,0004.63,0003.56
2022-01-26 11:59:00,,0824.5,5.01,0.00,22.0,22.7,00.0,31.0,23.9,07.4,0000.0,0003.67,0004.65,0003.55
